User: anonymous   Login
Location: Grossmotten
(48.5500°N, 15.3833°E)
Time: 12:04:00
(UTC+00:00)
Language:

In-Cosmos 22 Rocket - Orbit

View from above orbital plane
View from above orbital plane
View from above satellite
View from above satellite

Ground track
Ground track

The orbit data is extracted from the following two-line orbital elements,

1 12646U 81075B   20022.55956769 +.00000005 +00000-0 -43007-5 0  9993
2 12646 081.2247 056.8156 0068126 158.4292 354.8527 14.15890722985892
Epoch (UTC): 22 January 2020 13:25:46
Eccentricity: 0.0068126
inclination: 81.2247°
perigee height: 790 km
apogee height: 888 km
right ascension of ascending node: 56.8156°
argument of perigee: 158.4292°
revolutions per day: 14.15890722
mean anomaly at epoch: 354.8527°
orbit number at epoch: 98589

The dashed part of the orbit path shows where the satellite is in the earth's shadow,  

DLR